EW5238 Weather Reports


Display with metric or nautical units.
time (UTC)temp
F
wind
direction
speed
MPH
gust
MPH
rain 1hr
in
rain 24hr
in
rain mn
in
humidity
%
barometer
mb
20210625124949 79 98 0.0 2.0 0.00 0.00 0.00 19 1013.1
20210625124449 79 117 0.0 1.0 0.00 0.00 0.00 20 1013.1
20210625123947 78 117 0.0 3.0 0.00 0.00 0.00 23 1013.0
20210625123449 78 117 0.0 3.0 0.00 0.00 0.00 24 1013.1
20210625122951 78 117 0.0 3.0 0.00 0.00 0.00 24 1013.0
20210625122448 78 132 1.0 3.0 0.00 0.00 0.00 24 1013.0
20210625121952 78 118 1.0 3.0 0.00 0.00 0.00 24 1012.9
20210625121447 78 145 0.0 2.0 0.00 0.00 0.00 23 1012.9
20210625120946 78 144 0.0 2.0 0.00 0.00 0.00 22 1013.0
20210625120447 78 144 0.0 0.0 0.00 0.00 0.00 22 1012.9
20210625115944 78 144 0.0 0.0 0.00 0.00 0.00 22 1013.0
20210625115444 78 144 0.0 0.0 0.00 0.00 0.00 23 1013.1
20210625114941 78 144 0.0 0.0 0.00 0.00 0.00 23 1013.0
20210625114437 78 145 0.0 0.0 0.00 0.00 0.00 23 1012.9
20210625113942 78 144 0.0 1.0 0.00 0.00 0.00 23 1013.0
20210625113440 78 145 0.0 1.0 0.00 0.00 0.00 23 1012.9
20210625112937 78 159 0.0 0.0 0.00 0.00 0.00 23 1012.8
20210625112436 78 159 0.0 2.0 0.00 0.00 0.00 23 1012.9
20210625111933 77 159 0.0 2.0 0.00 0.00 0.00 23 1013.0
20210625111432 77 120 0.0 2.0 0.00 0.00 0.00 23 1012.9
20210625110930 77 165 0.0 2.0 0.00 0.00 0.00 24 1012.9
20210625110427 77 165 0.0 3.0 0.00 0.00 0.00 24 1012.9
20210625105929 77 136 1.0 3.0 0.00 0.00 0.00 24 1012.8
20210625105428 77 140 1.0 3.0 0.00 0.00 0.00 24 1012.6
20210625104922 77 141 1.0 4.0 0.00 0.00 0.00 24 1012.6
20210625104423 77 146 2.0 4.0 0.00 0.00 0.00 24 1012.5
20210625103926 77 132 2.0 5.0 0.00 0.00 0.00 24 1012.5
20210625103423 77 145 2.0 5.0 0.00 0.00 0.00 24 1012.4
20210625102924 77 158 1.0 4.0 0.00 0.00 0.00 25 1012.5
20210625102418 77 142 2.0 5.0 0.00 0.00 0.00 25 1012.5
20210625101911 77 152 1.0 5.0 0.00 0.00 0.00 26 1012.5
20210625101411 77 138 1.0 4.0 0.00 0.00 0.00 27 1012.4
20210625100909 77 147 2.0 4.0 0.00 0.00 0.00 27 1012.3
20210625100407 77 122 2.0 6.0 0.00 0.00 0.00 28 1012.2
20210625095909 77 151 2.0 6.0 0.00 0.00 0.00 29 1012.2
20210625095403 77 134 2.0 5.0 0.00 0.00 0.00 29 1012.2
20210625094904 77 127 3.0 6.0 0.00 0.00 0.00 30 1012.3
20210625094404 77 124 2.0 6.0 0.00 0.00 0.00 31 1012.3
20210625093904 77 148 2.0 6.0 0.00 0.00 0.00 31 1012.4
20210625093400 77 170 2.0 5.0 0.00 0.00 0.00 32 1012.3
20210625092907 77 128 2.0 5.0 0.00 0.00 0.00 33 1012.4
20210625092357 77 128 2.0 5.0 0.00 0.00 0.00 34 1012.4
20210625091856 77 122 3.0 5.0 0.00 0.00 0.00 35 1012.3
20210625091356 77 130 2.0 5.0 0.00 0.00 0.00 36 1012.4
20210625090858 77 139 1.0 4.0 0.00 0.00 0.00 37 1012.5
20210625090355 77 155 1.0 4.0 0.00 0.00 0.00 38 1012.5
20210625085902 77 176 2.0 4.0 0.00 0.00 0.00 39 1012.4
20210625085351 77 134 2.0 5.0 0.00 0.00 0.00 39 1012.5
20210625084857 77 113 2.0 5.0 0.00 0.00 0.00 40 1012.5
20210625084349 77 138 2.0 5.0 0.00 0.00 0.00 41 1012.5
20210625084026 77 134 2.0 6.0 0.00 0.00 0.00 41 1012.5
20210625083519 77 135 2.0 6.0 0.00 0.00 0.00 42 1012.6
20210625083022 77 137 1.0 4.0 0.00 0.00 0.00 44 1012.6
20210625082516 77 153 2.0 6.0 0.00 0.00 0.00 45 1012.6
20210625082019 77 148 2.0 6.0 0.00 0.00 0.00 46 1012.6
20210625081513 77 160 2.0 4.0 0.00 0.00 0.00 48 1012.7
20210625081013 77 145 2.0 5.0 0.00 0.00 0.00 48 1012.7
20210625080511 77 149 2.0 6.0 0.00 0.00 0.00 49 1012.6
20210625080011 77 164 3.0 6.0 0.00 0.00 0.00 51 1012.6
20210625075509 77 117 3.0 6.0 0.00 0.00 0.00 52 1012.6
20210625075008 77 137 3.0 6.0 0.00 0.00 0.00 53 1012.6
20210625074505 77 110 2.0 4.0 0.00 0.00 0.00 55 1012.7
20210625074007 77 130 1.0 4.0 0.00 0.00 0.00 57 1012.6
20210625073506 77 148 1.0 4.0 0.00 0.00 0.00 60 1012.7
20210625073004 77 188 1.0 4.0 0.00 0.00 0.00 61 1012.7
20210625072457 77 131 2.0 5.0 0.00 0.00 0.00 62 1012.7
20210625071959 77 173 3.0 6.0 0.00 0.00 0.00 62 1012.8
20210625071456 78 155 3.0 6.0 0.00 0.00 0.00 64 1012.7
20210625070956 78 171 3.0 5.0 0.00 0.00 0.00 65 1012.8
20210625070454 78 176 2.0 5.0 0.00 0.00 0.00 67 1012.8
20210625065952 78 124 3.0 5.0 0.00 0.00 0.00 68 1012.9
20210625065449 78 148 3.0 5.0 0.00 0.00 0.00 70 1012.9
20210625064948 78 132 2.0 5.0 0.00 0.00 0.00 72 1012.8
20210625064444 78 155 2.0 5.0 0.00 0.00 0.00 74 1012.9
20210625063824 78 132 2.0 0.0 0.00 0.00 0.00 75 1013.0
20210625063527 78 91 2.0 4.0 0.00 0.00 0.00 76 1013.0
20210625063037 78 145 1.0 4.0 0.00 0.00 0.00 77 1013.0
20210625062526 78 193 2.0 5.0 0.00 0.00 0.00 78 1013.1
20210625062032 78 161 3.0 6.0 0.00 0.00 0.00 79 1013.0
20210625061526 78 130 3.0 6.0 0.00 0.00 0.00 79 1013.0
20210625061029 78 136 3.0 6.0 0.00 0.00 0.00 80 1013.0
20210625060520 78 152 3.0 6.0 0.00 0.00 0.00 81 1013.0
20210625060029 79 140 3.0 6.0 0.00 0.00 0.00 82 1013.0
20210625055522 79 167 3.0 6.0 0.00 0.00 0.00 82 1013.0
20210625055025 79 146 3.0 6.0 0.00 0.00 0.00 83 1013.1
20210625054516 79 157 3.0 6.0 0.00 0.00 0.00 83 1013.1
20210625054026 79 142 3.0 6.0 0.00 0.00 0.00 84 1013.1
20210625053513 79 156 2.0 6.0 0.00 0.00 0.00 84 1013.0
20210625053014 79 109 2.0 6.0 0.00 0.00 0.00 85 1013.0
20210625052509 79 133 3.0 6.0 0.00 0.00 0.00 85 1013.0
20210625052012 79 137 3.0 6.0 0.00 0.00 0.00 85 1013.0
20210625051510 79 186 3.0 8.0 0.00 0.00 0.00 85 1013.0
20210625051010 80 167 3.0 8.0 0.00 0.00 0.00 85 1013.0
20210625050509 80 134 3.0 7.0 0.00 0.00 0.00 86 1012.9
20210625050005 80 146 3.0 7.0 0.00 0.00 0.00 86 1012.9
20210625045502 80 148 3.0 6.0 0.00 0.00 0.00 86 1013.0
20210625044956 80 173 3.0 6.0 0.00 0.00 0.00 86 1013.0
20210625044459 80 172 3.0 6.0 0.00 0.00 0.00 86 1013.0
20210625044000 80 133 3.0 7.0 0.00 0.00 0.00 86 1013.0
20210625043453 80 155 4.0 7.0 0.00 0.00 0.00 86 1013.1
20210625043002 80 160 4.0 8.0 0.00 0.00 0.00 86 1013.0
20210625042454 80 136 4.0 8.0 0.00 0.00 0.00 86 1013.0
20210625041953 80 194 3.0 6.0 0.00 0.00 0.00 85 1012.9
20210625041449 81 168 3.0 8.0 0.00 0.00 0.00 85 1012.9
20210625040951 81 139 4.0 8.0 0.00 0.00 0.00 85 1012.8
20210625040448 81 131 3.0 7.0 0.00 0.00 0.00 85 1012.8
20210625035950 81 171 4.0 8.0 0.00 0.00 0.00 84 1012.7
20210625035444 81 161 4.0 8.0 0.00 0.00 0.00 84 1012.6
20210625034949 81 148 4.0 8.0 0.00 0.00 0.00 84 1012.5
20210625034441 81 205 3.0 7.0 0.00 0.00 0.00 84 1012.5
20210625033944 82 160 3.0 7.0 0.00 0.00 0.00 83 1012.4
20210625033439 82 143 3.0 8.0 0.00 0.00 0.00 83 1012.3
20210625032937 82 176 4.0 8.0 0.00 0.00 0.00 83 1012.2
20210625032437 82 168 4.0 8.0 0.00 0.00 0.00 82 1012.1
20210625031939 82 215 4.0 8.0 0.00 0.00 0.00 82 1012.1
20210625031435 82 146 3.0 7.0 0.00 0.00 0.00 82 1011.9
20210625030938 82 143 4.0 10.0 0.00 0.00 0.00 82 1011.8
20210625030434 83 149 4.0 10.0 0.00 0.00 0.00 81 1011.8
20210625025929 83 177 4.0 9.0 0.00 0.00 0.00 81 1011.8
20210625025430 83 146 5.0 9.0 0.00 0.00 0.00 81 1011.7
20210625024930 83 121 4.0 8.0 0.00 0.00 0.00 81 1011.7
20210625024425 83 217 4.0 7.0 0.00 0.00 0.00 81 1011.6
20210625023927 83 169 4.0 9.0 0.00 0.00 0.00 81 1011.7
20210625023420 83 120 5.0 9.0 0.00 0.00 0.00 80 1011.6
20210625022922 83 176 4.0 9.0 0.00 0.00 0.00 80 1011.6
20210625022423 84 196 4.0 8.0 0.00 0.00 0.00 80 1011.6
20210625021918 84 145 4.0 11.0 0.00 0.00 0.00 80 1011.5
20210625021408 84 156 5.0 11.0 0.00 0.00 0.00 79 1011.4
20210625020917 84 186 5.0 10.0 0.00 0.00 0.00 79 1011.4
20210625020412 84 134 5.0 10.0 0.00 0.00 0.00 79 1011.4
20210625015910 85 151 5.0 9.0 0.00 0.00 0.00 79 1011.4
20210625015401 85 139 4.0 7.0 0.00 0.00 0.00 79 1011.4
20210625014912 85 148 3.0 7.0 0.00 0.00 0.00 79 1011.4
20210625014408 85 118 3.0 7.0 0.00 0.00 0.00 79 1011.4
20210625013910 85 141 3.0 7.0 0.00 0.00 0.00 78 1011.4
20210625013407 85 129 4.0 8.0 0.00 0.00 0.00 78 1011.4
20210625012901 86 134 4.0 9.0 0.00 0.00 0.00 77 1011.4
20210625012402 86 108 4.0 9.0 0.00 0.00 0.00 76 1011.5
20210625011859 86 123 5.0 9.0 0.00 0.00 0.00 76 1011.4
20210625011356 87 134 6.0 11.0 0.00 0.00 0.00 76 1011.4
20210625010901 87 143 7.0 11.0 0.00 0.00 0.00 76 1011.4
20210625010355 87 159 6.0 11.0 0.00 0.00 0.00 75 1011.3
20210625005852 87 136 6.0 11.0 0.00 0.00 0.00 75 1011.3
20210625005350 87 162 5.0 11.0 0.00 0.00 0.00 75 1011.2
20210625004846 88 158 5.0 11.0 0.00 0.00 0.00 75 1011.3
20210625004346 88 169 7.0 13.0 0.00 0.00 0.00 74 1011.2
20210625003848 88 164 7.0 13.0 0.00 0.00 0.00 73 1011.1
20210625003347 89 131 7.0 14.0 0.00 0.00 0.00 72 1011.2
20210625002845 89 122 6.0 14.0 0.00 0.00 0.00 72 1011.1
20210625002342 89 167 5.0 11.0 0.00 0.00 0.00 71 1011.1
20210625001846 89 127 5.0 11.0 0.00 0.00 0.00 71 1011.1
20210625001344 89 153 6.0 11.0 0.00 0.00 0.00 71 1011.0
20210625000837 90 149 6.0 13.0 0.00 0.00 0.00 70 1011.0
20210625000338 90 158 7.0 13.0 0.00 0.00 0.00 70 1011.0
20210624235838 90 134 6.0 15.0 0.00 0.00 0.00 69 1011.0
20210624235337 91 187 7.0 15.0 0.00 0.00 0.00 69 1010.9
20210624234836 91 117 7.0 13.0 0.00 0.00 0.00 69 1010.8
20210624234338 91 162 6.0 12.0 0.00 0.00 0.00 67 1010.8
20210624233828 91 143 6.0 11.0 0.00 0.00 0.00 68 1010.6
20210624233328 92 141 6.0 11.0 0.00 0.00 0.00 67 1010.6
20210624232822 92 135 6.0 13.0 0.00 0.00 0.00 68 1010.7
20210624232322 92 214 7.0 13.0 0.00 0.00 0.00 67 1010.7
20210624231823 92 153 7.0 13.0 0.00 0.00 0.00 67 1010.7
20210624231321 92 197 7.0 13.0 0.00 0.00 0.00 67 1010.6
20210624230819 92 135 6.0 11.0 0.00 0.00 0.00 66 1010.6
20210624230316 92 205 6.0 11.0 0.00 0.00 0.00 66 1010.6
20210624225812 92 193 8.0 12.0 0.00 0.00 0.00 65 1010.7
20210624225313 93 150 8.0 13.0 0.00 0.00 0.00 65 1010.7
20210624224813 93 131 6.0 13.0 0.00 0.00 0.00 67 1010.6
20210624224308 93 188 6.0 11.0 0.00 0.00 0.00 67 1010.7
20210624223807 93 192 7.0 14.0 0.00 0.00 0.00 66 1010.7
20210624223306 93 144 7.0 14.0 0.00 0.00 0.00 65 1010.7
20210624222804 93 196 6.0 11.0 0.00 0.00 0.00 67 1010.7
20210624222300 92 130 5.0 11.0 0.00 0.00 0.00 67 1010.7
20210624221804 92 136 6.0 12.0 0.00 0.00 0.00 68 1010.9
20210624221258 93 129 7.0 12.0 0.00 0.00 0.00 66 1011.0
20210624220758 93 189 7.0 12.0 0.00 0.00 0.00 65 1011.0
20210624220307 93 212 5.0 11.0 0.00 0.00 0.00 66 1011.0
20210624215757 93 229 5.0 10.0 0.00 0.00 0.00 67 1011.1
20210624215257 93 117 7.0 14.0 0.00 0.00 0.00 66 1011.1
20210624214759 94 134 7.0 14.0 0.00 0.00 0.00 64 1011.1
20210624214253 94 162 6.0 12.0 0.00 0.00 0.00 64 1011.1
20210624213754 94 173 7.0 13.0 0.00 0.00 0.00 62 1011.2
20210624213254 94 250 6.0 13.0 0.00 0.00 0.00 62 1011.2
20210624212753 94 191 5.0 9.0 0.00 0.00 0.00 63 1011.2
20210624212254 94 148 5.0 10.0 0.00 0.00 0.00 63 1011.3
20210624211754 94 188 6.0 13.0 0.00 0.00 0.00 65 1011.3
20210624211254 95 174 6.0 13.0 0.00 0.00 0.00 61 1011.5
20210624210756 95 240 5.0 11.0 0.00 0.00 0.00 62 1011.5
20210624210254 95 207 6.0 12.0 0.00 0.00 0.00 63 1011.5
20210624205753 94 136 7.0 12.0 0.00 0.00 0.00 62 1011.5
20210624205251 94 169 6.0 11.0 0.00 0.00 0.00 63 1011.5
20210624204751 95 153 6.0 12.0 0.00 0.00 0.00 62 1011.6
20210624204246 94 157 6.0 12.0 0.00 0.00 0.00 65 1011.6
20210624203747 94 200 6.0 11.0 0.00 0.00 0.00 66 1011.6
20210624203243 94 127 6.0 12.0 0.00 0.00 0.00 64 1011.6
20210624202743 94 207 7.0 13.0 0.00 0.00 0.00 65 1011.7
20210624202244 94 203 7.0 13.0 0.00 0.00 0.00 63 1011.7
20210624201742 94 188 6.0 11.0 0.00 0.00 0.00 66 1011.7
20210624201242 93 188 6.0 11.0 0.00 0.00 0.00 67 1011.8
20210624200746 93 156 6.0 15.0 0.00 0.00 0.00 67 1011.9
20210624200243 94 140 7.0 15.0 0.00 0.00 0.00 65 1011.9
20210624195743 94 151 6.0 11.0 0.00 0.00 0.00 67 1011.9
20210624195239 94 198 6.0 11.0 0.00 0.00 0.00 67 1012.1
20210624194739 94 110 6.0 12.0 0.00 0.00 0.00 65 1012.2
20210624194239 94 188 7.0 13.0 0.00 0.00 0.00 64 1012.3
20210624193739 94 138 7.0 13.0 0.00 0.00 0.00 66 1012.3
20210624193240 93 155 8.0 14.0 0.00 0.00 0.00 66 1012.4
20210624192739 93 119 8.0 14.0 0.00 0.00 0.00 65 1012.4
20210624192240 93 132 7.0 14.0 0.00 0.00 0.00 67 1012.5
20210624191737 93 159 7.0 13.0 0.00 0.00 0.00 66 1012.6
20210624191236 94 193 6.0 10.0 0.00 0.00 0.00 66 1012.6
20210624190733 94 126 6.0 13.0 0.00 0.00 0.00 65 1012.6
20210624190233 93 225 7.0 13.0 0.00 0.00 0.00 64 1012.6
20210624185735 93 189 6.0 11.0 0.00 0.00 0.00 65 1012.6
20210624185233 94 183 6.0 13.0 0.00 0.00 0.00 64 1012.7
20210624184728 94 239 6.0 14.0 0.00 0.00 0.00 66 1012.7
20210624184226 93 176 6.0 14.0 0.00 0.00 0.00 68 1012.9
20210624183729 93 199 6.0 12.0 0.00 0.00 0.00 65 1013.0
20210624183228 93 215 7.0 12.0 0.00 0.00 0.00 67 1013.1
20210624182727 92 207 6.0 14.0 0.00 0.00 0.00 67 1013.1
20210624182228 92 170 5.0 14.0 0.00 0.00 0.00 69 1013.3
20210624181723 92 175 6.0 12.0 0.00 0.00 0.00 71 1013.3
20210624181224 92 222 7.0 12.0 0.00 0.00 0.00 69 1013.5
20210624180722 92 209 6.0 12.0 0.00 0.00 0.00 69 1013.4
20210624180219 92 229 6.0 12.0 0.00 0.00 0.00 69 1013.4
20210624175720 92 178 6.0 13.0 0.00 0.00 0.00 69 1013.5
20210624175219 92 163 6.0 13.0 0.00 0.00 0.00 69 1013.6
20210624174714 91 222 6.0 13.0 0.00 0.00 0.00 72 1013.6
20210624174214 91 164 7.0 13.0 0.00 0.00 0.00 69 1013.6
20210624173713 91 150 7.0 13.0 0.00 0.00 0.00 72 1013.7
20210624173214 91 156 6.0 13.0 0.00 0.00 0.00 70 1013.8
20210624172715 91 203 5.0 11.0 0.00 0.00 0.00 72 1013.8
20210624172213 91 166 6.0 11.0 0.00 0.00 0.00 71 1013.9
20210624171706 91 128 5.0 11.0 0.00 0.00 0.00 71 1013.8
20210624171208 91 131 6.0 11.0 0.00 0.00 0.00 73 1013.9
20210624170707 91 215 5.0 12.0 0.00 0.00 0.00 74 1013.8
20210624170208 90 129 5.0 12.0 0.00 0.00 0.00 73 1013.8
20210624165708 91 158 5.0 9.0 0.00 0.00 0.00 73 1013.9
20210624165207 91 127 5.0 11.0 0.00 0.00 0.00 75 1014.0
20210624164702 91 151 5.0 11.0 0.00 0.00 0.00 72 1013.9
20210624164200 91 238 5.0 11.0 0.00 0.00 0.00 73 1014.0
20210624163700 90 178 5.0 11.0 0.00 0.00 0.00 75 1014.0
20210624163200 90 108 5.0 11.0 0.00 0.00 0.00 74 1014.1
20210624162702 90 139 6.0 11.0 0.00 0.00 0.00 75 1014.1
20210624162202 90 210 5.0 10.0 0.00 0.00 0.00 73 1014.1
20210624161702 90 187 5.0 10.0 0.00 0.00 0.00 74 1014.1
20210624161158 90 193 5.0 10.0 0.00 0.00 0.00 74 1014.2
20210624160657 90 124 4.0 9.0 0.00 0.00 0.00 76 1014.2
20210624160156 89 184 5.0 10.0 0.00 0.00 0.00 77 1014.2
20210624155656 88 195 5.0 10.0 0.00 0.00 0.00 78 1014.3
20210624155156 88 229 5.0 9.0 0.00 0.00 0.00 78 1014.3
20210624154700 89 133 4.0 9.0 0.00 0.00 0.00 77 1014.5
20210624154157 88 215 3.0 6.0 0.00 0.00 0.00 80 1014.4
20210624153651 87 205 3.0 8.0 0.00 0.00 0.00 80 1014.5
20210624153153 87 131 3.0 8.0 0.00 0.00 0.00 81 1014.5
20210624152651 87 240 3.0 7.0 0.00 0.00 0.00 80 1014.5
20210624152148 87 127 3.0 7.0 0.00 0.00 0.00 81 1014.5
20210624151650 87 153 4.0 8.0 0.00 0.00 0.00 82 1014.5
20210624151150 86 198 5.0 9.0 0.00 0.00 0.00 82 1014.6
20210624150647 86 171 4.0 9.0 0.00 0.00 0.00 82 1014.6
20210624150146 86 186 3.0 8.0 0.00 0.00 0.00 83 1014.7
20210624145647 86 132 2.0 8.0 0.00 0.00 0.00 83 1014.7
20210624145146 86 152 2.0 6.0 0.00 0.00 0.00 84 1014.7
20210624144646 85 159 3.0 8.0 0.00 0.00 0.00 85 1014.8
20210624144146 84 155 4.0 8.0 0.00 0.00 0.00 86 1014.8
20210624143646 84 205 3.0 7.0 0.00 0.00 0.00 86 1014.7
20210624143146 83 195 4.0 8.0 0.00 0.00 0.00 86 1014.7
20210624142646 83 160 4.0 8.0 0.00 0.00 0.00 85 1014.8
20210624142146 83 177 3.0 6.0 0.00 0.00 0.00 84 1014.7
20210624141647 82 118 3.0 6.0 0.00 0.00 0.00 80 1014.5
20210624141143 82 227 3.0 6.0 0.00 0.00 0.00 78 1014.5
20210624140638 82 129 4.0 7.0 0.00 0.00 0.00 70 1014.4
20210624140138 81 144 4.0 7.0 0.00 0.00 0.00 57 1014.5
20210624135638 81 132 3.0 6.0 0.00 0.00 0.00 34 1014.6
20210624135139 81 183 2.0 4.0 0.00 0.00 0.00 23 1014.6
20210624134638 80 119 1.0 4.0 0.00 0.00 0.00 21 1014.5
20210624134139 80 161 1.0 4.0 0.00 0.00 0.00 17 1014.5
20210624133633 80 102 2.0 5.0 0.00 0.00 0.00 17 1014.6
20210624133135 79 117 2.0 5.0 0.00 0.00 0.00 17 1014.5
20210624132635 78 170 2.0 5.0 0.00 0.00 0.00 18 1014.5
20210624132133 78 155 1.0 5.0 0.00 0.00 0.00 17 1014.5
20210624131633 78 170 1.0 5.0 0.00 0.00 0.00 17 1014.5
20210624131135 78 148 2.0 5.0 0.00 0.00 0.00 18 1014.5
20210624130629 78 147 2.0 4.0 0.00 0.00 0.00 18 1014.5
20210624130131 78 203 1.0 4.0 0.00 0.00 0.00 17 1014.5
20210624125630 78 164 0.0 3.0 0.00 0.00 0.00 17 1014.4